Regional Weather Roundup
Issued by NWS

Home | Current Version | Previous Version | Text Only | Print | Product List | Glossary Off
Versions: 1 2 3 4 5 6 7 8 9 10 11 12 13 14 15 16 17 18 19 20 21 22 23 24 25 26 27 28 29 30 31 32 33 34 35 36 37 38 39 40 41 42 43 44 45 46 47 48 49 50

000
ASUS43 KLOT 020900
RWRIL

ILLINOIS REGIONAL WEATHER ROUNDUP
NATIONAL WEATHER SERVICE CHICAGO/ROMEOVILLE IL
400 AM CDT THU OCT 02 2014

NOTE: "FAIR" INDICATES FEW OR NO CLOUDS BELOW 12,000 FEET WITH NO
SIGNIFICANT WEATHER AND/OR OBSTRUCTIONS TO VISIBILITY.

* THESE STATIONS ARE NOT UNDER NWS QUALITY CONTROL. THEY ALSO MAY NOT
  REPORT WEATHER SUCH AS PRECIPITATION OR FOG.

ILZ001-002-007-009-015-016-024-021000-
NORTHWEST ILLINOIS

CITY           SKY/WX    TMP DP  RH WIND       PRES   REMARKS
MOLINE         CLOUDY    64  62  93 CALM      29.81R FOG
$$

ILZ003-004-008-010-011-017-018-021000-
NORTH CENTRAL ILLINOIS

CITY           SKY/WX    TMP DP  RH WIND       PRES   REMARKS
ROCKFORD       CLOUDY    65  58  78 SE9       29.85S
FREEPORT*      CLOUDY    62  56  82 SE5       29.84F
$$

ILZ005-006-012>014-019>023-021000-
NORTHEAST ILLINOIS

CITY           SKY/WX    TMP DP  RH WIND       PRES   REMARKS
CHICAGO-OHARE  CLOUDY    63  56  78 SE6       29.86F
CHICAGO-MIDWAY NOT AVBL
AURORA         CLOUDY    64  58  80 SE7       29.86S
LANSING*       CLOUDY    62  56  81 SE8       29.88F
WAUKEGAN       NOT AVBL
DUPAGE AIRPORT CLOUDY    64  58  80 SE7       29.86S
WHEELING       LGT RAIN  64  57  78 SE6       29.87F
NORTHERLY ISL    N/A     63  57  81 SE7         N/A
$$

LMZ740>746-021000-
SOUTHERN LAKE MICHIGAN

STATION/POSITION SKY/WX   TEMP    WIND        PRES    VSBY  WAVE
                          AIR SEA DIR/SP/G                  HT/PER
                          (F)     (DEG/KT/KT) (MB)    (MI)  (FT/S)
SOUTHERN BUOY              63 62  150/ 17/ 19 1011.9F         4/ 5
WAUKEGAN HARBOR            61     180/  8/ 10   N/A
HARRISON CRIB              65     170/ 16/ 18   N/A
BURNHAM HARBOR             63     160/  4/  7   N/A
CALUMET HARBOR             63     150/  6/  9 1010.6F
BURNS HARBOR               63     160/ 13/ 22   N/A
MICHIGAN CITY              63     130/ 12/ 16   N/A
MICHIGAN CITY 6N           63 64  160/ 12/ 14   N/A           2/ 2
ST. JOSEPH                 63 63  120/ 14/ 17   N/A           2/ 2
$$

ILZ025>027-034>036-040-047-049-050-058-095>099-021000-
WEST-CENTRAL ILLINOIS

CITY           SKY/WX    TMP DP  RH WIND       PRES   REMARKS
QUINCY         LGT RAIN  66  63  90 S13       29.80R
$$

ILZ028>032-037-038-041>044-048-051>054-059>061-021000-
CENTRAL ILLINOIS

CITY           SKY/WX    TMP DP  RH WIND       PRES   REMARKS
DECATUR        LGT RAIN  67  66  97 S15G22    29.87F
PEORIA         LGT RAIN  67  63  87 S8        29.85S
SPRINGFIELD    HVY RAIN  67  65  93 W12       29.91R FOG
TAYLORVILLE    NOT AVBL
$$

ILZ033-039-045-046-055>057-062-063-021000-
EAST-CENTRAL ILLINOIS

CITY           SKY/WX    TMP DP  RH WIND       PRES   REMARKS
MATTOON        TSTM      65  64  97 NW12      29.92R
$$

ILZ079-100>102-021000-
SOUTHWEST ILLINOIS

CITY           SKY/WX    TMP DP  RH WIND       PRES   REMARKS
BELLEVILLE     CLOUDY    70  68  94 CALM      29.85S FOG
CAHOKIA*       MOCLDY    70  68  93 SE5       29.84F FOG
SPARTA*        CLOUDY    74  63  69 S9        29.88S
$$

ILZ064>066-069>071-074>076-080>082-084>086-088>090-092>094-021000-
SOUTH-CENTRAL ILLINOIS

CITY           SKY/WX    TMP DP  RH WIND       PRES   REMARKS
CARBONDALE     CLOUDY    72  60  66 S7        29.88R
$$

ILZ067-068-072-073-078-083-087-091-021000-
SOUTHEAST ILLINOIS

CITY           SKY/WX    TMP DP  RH WIND       PRES   REMARKS
LAWRENCEVILLE  CLOUDY    66  59  78 SE5       29.91S
ROBINSON*      CLOUDY    65  62  87 NW6       29.91S
$$

ABBREVIATIONS USED IN REMARKS
   TC - TEMPERATURE IN CELSIUS
  WCI - WIND CHILL INDEX
   HX - HEAT INDEX
  VSB - VISIBILITY
$$




USA.gov is the U.S. government's official web portal to all federal, state and local government web resources and services.